Regional Weather Roundup
Issued by NWS

Home | Current Version | Previous Version | Text Only | Print | Product List | Glossary On
Versions: 1 2 3 4 5 6 7 8 9 10 11 12 13 14 15 16 17 18 19 20 21 22 23 24 25 26 27 28 29 30 31 32 33 34 35 36 37 38 39 40 41 42 43 44 45 46 47 48 49 50
000
ASHW40 PHFO 122130
RWRHI

WEATHER ROUNDUP FOR HAWAII
NATIONAL WEATHER SERVICE HONOLULU HI
1100 AM HST SAT JUL 12 2014

THIS IS AN AUTOMATED REPORT THAT HAS NOT BEEN QUALITY CONTROLLED.

NOTE..."FAIR" INDICATES FEW OR NO CLOUDS BELOW 12,000 FEET WITH NO
SIGNIFICANT WEATHER AND/OR OBSTRUCTIONS TO VISIBILITY.

* - THESE SITES REPORT LIMITED FIELDS

HIZ001>004-122200-
KAUAI-NIIHAU-

CITY           SKY/WX    TMP DP  RH WIND       PRES   REMARKS
LIHUE APT      PTSUNNY   82  71  69 NE14      30.04R
PORT ALLEN*      N/A     82 N/A N/A E16         N/A
POIPU*           N/A     84 N/A N/A NE9G17      N/A
PRINCEVILLE*   NOT AVBL
KOKOLE POINT*  NOT AVBL
MOLOAA DAIRY*  NOT AVBL
WAIMEA HTS*    NOT AVBL
PUU OPAE*      NOT AVBL
PUU LUA*       NOT AVBL
MAKAHA RIDGE*    N/A     79  64  61 CALM        N/A
$$

HIZ005>011-122200-
OAHU-

CITY           SKY/WX    TMP DP  RH WIND       PRES   REMARKS
HONOLULU       MOSUNNY   86  64  47 NE18G28   29.99S
KALAELOA       PTSUNNY   85  64  49 E8        29.99F
KANEOHE MCB    PTSUNNY   81  66  61 NE10G18   30.01F
WHEELER FIELD  NOT AVBL
BELLOWS*         N/A    N/A N/A N/A NE15        N/A
KAHUKU*          N/A    N/A N/A N/A NE10G23     N/A
WHEELER*       NOT AVBL
WAIANAE HARBOR NOT AVBL
DILLINGHAM*      N/A     90  68  48 NE9G18      N/A  HX  93
KAHUKU TRN*      N/A     81  70  69 E13G26      N/A
KAWAILOA*      NOT AVBL
KII*             N/A     81  70  69 E16         N/A
MAKUA RANGE*     N/A     88  64  45 E10G20      N/A
OAHU FOREST NW NOT AVBL
SCHOFIELD BRK*   N/A     81  64  57 MISG        N/A
SCHOFIELD S*   NOT AVBL
WAIANAE VLY*   NOT AVBL
KUAOKALA*      NOT AVBL
HONOULIUULI*   NOT AVBL
MOKUOLOE IS*     N/A    N/A N/A N/A MISG        N/A
PALEHUA*       NOT AVBL
WAIAWA PHB*    NOT AVBL
$$

HIZ012>013-122200-
MOLOKAI-

CITY           SKY/WX    TMP DP  RH WIND       PRES   REMARKS
MOLOKAI AIRPT  MOSUNNY   83  69  62 NE13G25   30.01S
KALAUPAPA      NOT AVBL
MAKAPULAPAI*   NOT AVBL
MOLOKAI 1*     NOT AVBL
PUU ALII*        N/A     66  61  84 E3G12       N/A
$$

HIZ016-122200-
KAHOOLAWE-

CITY           SKY/WX    TMP DP  RH WIND       PRES   REMARKS
KAHOOLAWE*     NOT AVBL
HAKIOAWA*        N/A     79  64  60 MISG      30.11S
HONOKANAIA*      N/A     86  66  51 NE16G30     N/A
KANELOA*         N/A     81  68  65 E20G31    30.09S
KEALIALALO*      N/A    N/A N/A N/A E17G28      N/A
LUA MAKIKA*    NOT AVBL
$$

HIZ014>015-122200-
LANAI-

CITY           SKY/WX    TMP DP  RH WIND       PRES   REMARKS
LANAI CITY     PTSUNNY   81  66  61 NE12      30.04S
LANAI 1*       NOT AVBL
$$

HIZ017>028-122200-
MAUI-

CITY           SKY/WX    TMP DP  RH WIND       PRES   REMARKS
KAHULUI        MOSUNNY   85  69  58 NE23G30   29.99S
KAPALUA-W MAUI MOSUNNY   84  66  54 NE15G28   30.00
HANA AIRPORT   CLOUDY    82  68  61 E12       30.04S
HANA*            N/A     81 N/A N/A E8          N/A
HALEAKALA SUMM   N/A     54  18  24 E25         N/A
MAALAEA BAY*   NOT AVBL
HALEAKALA*     NOT AVBL
KAUPO GAP*     NOT AVBL
KULA 1*          N/A     65  56  72 NW6         N/A
$$

HIZ023>026-122200-
BIG ISLAND OF HAWAII COAST AND LOWER SLOPES-

CITY           SKY/WX    TMP DP  RH WIND       PRES   REMARKS
KAILUA KONA    MOSUNNY   84  69  60 SW12      29.95S
HILO           PTSUNNY   81  67  62 NE7       30.00S
HONOKAA*       NOT AVBL
KAWAIHAE MWT*    N/A     84 N/A N/A W10         N/A
KAWAIHAE*        N/A     81 N/A N/A W12         N/A
SOUTH POINT*     N/A     81 N/A N/A E24G33      N/A
UPOLU AIRPORT*   N/A    N/A N/A N/A NE21G26     N/A
KAMUELA*       MOCLDY    75  63  64 NE18      30.08F
HAKALAU*         N/A     66  51  59 E7          N/A
KALOKO-HONOKO*   N/A     84  70  61 S9G16     29.95S
PALI 2*          N/A     81  57  44 NE13G20     N/A
KEALAKOMO*       N/A     84  66  54 NE14G24     N/A
KAUPULEHU*     NOT AVBL
KAPAPALA*        N/A     80  64  58 E8G17       N/A
LOWER KAHUKU*  NOT AVBL
PUHE CS*       NOT AVBL
PUHO CS*         N/A     82  69  64 SW6         N/A
PTA KEAMUKU*     N/A     75  61  60 NE20G26     N/A
WAIKOLOA*      NOT AVBL
$$

HIZ027>028-122200-
BIG ISLAND OF HAWAII INTERIOR AND SUMMMITS-

CITY           SKY/WX    TMP DP  RH WIND       PRES   REMARKS
BRADSHAW FIELD NOT AVBL
MK VISITOR CEN NOT AVBL
MAUNA KEA*       N/A     46  -9   9 SE17        N/A
MAUNA LOA*       N/A    N/A N/A N/A MISG        N/A
MAUNA LOA 1*     N/A    N/A N/A N/A MISG        N/A
PTA KIPUKA*      N/A     72  54  53 NW8G15      N/A
PTA RANGE 17*    N/A     70  50  49 W10G16      N/A
PTA WEST*        N/A     73  55  53 NW10G17     N/A
NENE CABIN*    NOT AVBL
AHUMOA*        NOT AVBL
PTA PORTABLE*  NOT AVBL
PUU MALI*      NOT AVBL
$$

HIC003-122200-
NORTHWEST ISLANDS-

CITY           SKY/WX    TMP DP  RH WIND       PRES   REMARKS
MIDWAY ISLAND  MOSUNNY   82  73  74 E15       30.21R
MIDWAY NOS*    NOT AVBL
FRENCH FRIGATE NOT AVBL
$$

PHZ110>124-180-122200-
BUOY REPORTS

STATION/POSITION TIME  TEMP    WIND        PRES    WAVE   SWELL
                       AIR SEA DIR/SP/G            HT/PER HT/DIR
                 (UTC) (F)     (DEG/KT/KT) (MB)    (FT/S) (FT/D)
BUOY 51001       NOT AVBL
BUOY 51101       2100   78 79   80/ 12/ 14 1017.2F   5/ 8   5/130
BUOY 51100       2100   77      80/ 12     1017.6R
BUOY 51003       2100   80 81   60/ 14/ 16 1015.0F   5/ 8   5
BUOY 51004       2044   76 79   60/ 17/ 21 1014.1S   6/ 9   5/100
BARBERS PT BUOY  NOT AVBL
WAIMEA BAY BUOY  2100      80                N/A     4/ 7   2/310
KAILUA BAY BUOY  2100      79                N/A     5/ 8   2/120
LANAI BUOY       2100      80                N/A     2/13   2/210
BARBERS PT 2     2100      80                N/A     3/13   2/230
PAUWELA MAUI     2100      79                N/A     5/ 8
HILO             NOT AVBL
KANEOHE BAY BUOY 2100      79                N/A     4/ 8
HANALEI KAUAI    2100      79                N/A     4/ 7   2/290
KAHULUI HARBOR   2100   78 80   20/ 14/ 18 1015.6S
HONOLULU HARBOR  2100   83      70/  6/ 10 1015.8S
KILO NALU        NOT AVBL
HILO HARBOR      2100   82      50/ 11/ 13 1015.5S
MOKUOLOE         2100   84 81  100/ 10/ 14 1016.6S
NAWILIWILI       2100      80                N/A
WHOTS BUOY       NOT AVBL
BUOY 51028       NOT AVBL
$$

......................KEY........................................
  SKY/WX - SKY CONDITIONS/PRESENT WEATHER
  TMP    - TEMPERATURE IN FAHRENHEIT
  DWPT   - DEWPOINT IN FAHRENHEIT
  RH     - RELATIVE HUMIDITY IN PERCENT
  WIND   - DIRECTION AND SPEED /MPH FOR ISLANDS...KTS FOR BUOYS/
  PRES   - MEAN SEA LEVEL PRESSURE IN INCHES OF HG
  VSB    - VISIBILITY IN MILES
  HX     - HEAT INDEX
  WCI    - WIND CHILL INDEX
  VRB    - VARIABLE WIND DIRECTION
  N/A    - NOT AVAILABLE


USA.gov is the U.S. government's official web portal to all federal, state and local government web resources and services.